Regional Weather Roundup
Issued by NWS Boston, MA

Current Version | Previous Version | Text Only | Print | Product List | Glossary Off
Versions: 1 2 3 4 5 6 7 8 9 10 11 12 13 14 15 16 17 18 19 20 21 22 23 24 25 26 27

000
ASUS41 KBOX 221510
RWRBOX

REGIONAL WEATHER ROUNDUP
NATIONAL WEATHER SERVICE TAUNTON MA
1000 AM EST WED NOV 22 2017

NOTE:  "FAIR" INDICATES FEW OR NO CLOUDS BELOW 12,000 FEET WITH NO
SIGNIFICANT WEATHER AND/OR OBSTRUCTIONS TO VISIBILITY.

MAZALL-221600-
EASTERN MASSACHUSETTS

CITY           SKY/WX    TMP DP  RH WIND       PRES   REMARKS
BOSTON         RAIN      51  50  96 E5        29.91F FOG
BEVERLY        RAIN      52  52 100 SE6       29.91F FOG
LAWRENCE       LGT RAIN  53  50  89 SE7       29.91F FOG
BEDFORD        RAIN      52  51  97 SE12      29.89F FOG
BLUE HILL        N/A     52  50  93 VRB5      29.90
NORWOOD        LGT RAIN  54  53  97 S5        29.91F FOG
MARSHFIELD     DRIZZLE   54  54 100 S7        29.93S
PLYMOUTH       RAIN      55  53  93 CALM      29.93F FOG
TAUNTON        RAIN      54  53  97 CALM      29.91F FOG
NEW BEDFORD    RAIN      53  52  96 CALM      29.91F FOG
$$

MAZALL-221600-
CAPE COD AND THE ISLANDS

CITY           SKY/WX    TMP DP  RH WIND       PRES   REMARKS
FALMOUTH       LGT RAIN  54  54 100 CALM      29.92F
HYANNIS        RAIN      56  56 100 W8        29.91S FOG
CHATHAM        RAIN      55  54  96 S8        29.93F FOG
PROVINCETOWN   LGT RAIN  54  53  97 CALM      29.94S FOG
NANTUCKET      LGT RAIN  55  55 100 S17       29.91F
MARTHAS VNYRD  RAIN      54  53  97 NW7       29.91F FOG
$$

MAZALL-221600-
CENTRAL AND WESTERN MASSACHUSETTS

CITY           SKY/WX    TMP DP  RH WIND       PRES   REMARKS
WORCESTER      RAIN      47  46  97 S7        29.86F VSB 1/4
FITCHBURG      LGT RAIN  48  46  93 NW7       29.88S FOG
ORANGE         LGT RAIN  39  39 100 E3        29.89S
SPRINGFIELD    LGT RAIN  43  41  92 N5        29.88R
WESTFIELD      LGT RAIN  42  41  96 CALM      29.89R
NORTH ADAMS    LGT RAIN  38  34  85 CALM      29.92S
PITTSFIELD     LGT RAIN  43  38  82 W3        29.89S
$$

RIZALL-221600-
RHODE ISLAND

CITY           SKY/WX    TMP DP  RH WIND       PRES   REMARKS
PROVIDENCE     RAIN      53  53 100 S7        29.93R FOG
NEWPORT        RAIN      53  53 100 CALM      29.90F FOG
BLOCK ISLAND   LGT RAIN  53  53 100 S6        29.91F FOG
SMITHFIELD     RAIN      51  51 100 SE7       29.91F FOG
WESTERLY       RAIN      55  55 100 SE6       29.90F FOG
$$

CTZALL-221600-
CONNECTICUT

CITY           SKY/WX    TMP DP  RH WIND       PRES   REMARKS
BRADLEY INTL   LGT RAIN  46  44  93 W6        29.89S
HARTFORD       LGT RAIN  50  48  93 W6        29.89S FOG
BRIDGEPORT     LGT RAIN  53  51  93 W6        29.89S FOG
DANBURY        LGT RAIN  47  45  93 CALM      29.91F FOG
GROTON         RAIN      54  53  97 SE5       29.89F FOG
NEW HAVEN      LGT RAIN  52  51  97 CALM      29.89R FOG
CHESTER        LGT RAIN  54  52  94 CALM      29.88F VSB<1/4
MERIDEN        LGT RAIN  47  47 100 W3        29.89S FOG
WILLIMANTIC    RAIN      48  46  93 W3        29.88F FOG
OXFORD         LGT RAIN  46  46 100 W5        29.90S VSB 1
$$

MEZ002-015-021-024-NHZ003-005-008-011-012-014-VTZ005-008-221600-
NORTHERN NEW ENGLAND

CITY           SKY/WX    TMP DP  RH WIND       PRES   REMARKS
PORTLAND ME    CLOUDY    43  39  86 SE6       29.91F
BANGOR ME      CLOUDY    46  39  76 CALM      29.94F
CONCORD NH     LGT RAIN  35  32  88 NW8       29.91F WCI  29
MANCHESTER NH  LGT RAIN  41  40  96 N5        29.87F
NASHUA NH      LGT RAIN  40  40 100 NW7       29.89F
PORTSMOUTH NH  LGT RAIN  45  43  94 CALM      29.88F FOG
JAFFREY NH     LGT RAIN  40  39  97 CALM      29.88S FOG
KEENE NH       LGT RAIN  35  33  92 S5        29.90F WCI  31
BURLINGTON VT  LGT RAIN  37  34  89 N9        29.97R WCI  30
MT. WASHINGTON CLOUDY    27  21  80 W26         N/A  WCI  11
$$

NYZ052-076-221600-
EASTERN NEW YORK

CITY           SKY/WX    TMP DP  RH WIND       PRES   REMARKS
ALBANY         LGT RAIN  42  36  79 CALM      29.95R
NEW YORK CITY  CLOUDY    51  48  89 NW10      29.89S
$$

ANZALL-221600-
MARINE OBSERVATIONS

STATION/POSITION TIME  TEMP    WIND        PRES    VSBY  WAVE
                       AIR SEA DIR/SP/G                  HT/PER
                 (UTC) (F)     (DEG/KT/KT) (MB)    (MI)  (FT/S)
BOSTON BUOY      1450   52 51  150/  6/  6 1012.5F         1/ 8
BUZZARDS BAY     1400   54     280/  7/  8 1013.9S
NANTUCKET SOUND  1450   54 50  170/ 12/ 12 1012.7F         2/ 4
MASS BAY-STELLWA 1404   52 49  150/  6/  8 1012.9F         2/ 8
ISLE OF SHOALS   1400   50     190/  7/  8 1013.6F
S OF BLOCK IS    NOT AVBL
$$

......................KEY.........................
  SKY/WX - SKY CONDITION/PRESENT WEATHER
  TMP    - TEMPERATURE IN FAHRENHEIT
  DWPT   - DEWPOINT IN FAHRENHEIT
  RH     - RELATIVE HUMIDITY IN PERCENT
  WIND   - DIRECTION AND SPEED IN MPH
  PRES   - MEAN SEA LEVEL PRESSURE IN INCHES OF HG
  WCI    - WIND CHILL INDEX
  VSB    - VISIBILITY IN MILES
  HX     - HEAT INDEX
  TC     - TEMPERATURE IN CELSIUS
  VRB    - VARIABLE WIND DIRECTION
  N/A    - NOT AVAILABLE




USA.gov is the U.S. government's official web portal to all federal, state and local government web resources and services.